Regional Weather Roundup
Issued by NWS

Home | Current Version | Previous Version | Text Only | Print | Product List | Glossary Off
Versions: 1 2 3 4 5 6 7 8 9 10 11 12 13 14 15 16 17 18 19 20 21 22 23 24 25 26 27 28 29 30 31 32 33 34 35 36 37 38 39 40 41 42 43 44 45 46 47 48 49 50

000
ASUS43 KBIS 011401
RWRND

NORTH DAKOTA REGIONAL WEATHER ROUNDUP
NATIONAL WEATHER SERVICE BISMARCK ND
800 AM CST SUN FEB 01 2015

NOTE: "FAIR" INDICATES FEW OR NO CLOUDS BELOW 12,000 FEET WITH NO
SIGNIFICANT WEATHER AND/OR OBSTRUCTIONS TO VISIBILITY.


NDZ001>003-009>011-017-011500-
NORTHWEST NORTH DAKOTA

CITY           SKY/WX    TMP DP  RH WIND       PRES   REMARKS
WILLISTON      PTCLDY   -14 -18  82 CALM      30.50S
MINOT          MOCLDY   -12 -19  71 NW7       30.51S WCI -27
MINOT AFB      MOCLDY   -13 -19  75 NW6       30.52S WCI -27
$$

NDZ018>021-031>035-040>046-011500-
SOUTHWEST NORTH DAKOTA

CITY           SKY/WX    TMP DP  RH WIND       PRES   REMARKS
BISMARCK       MOCLDY    -7 -15  68 N10       30.51R WCI -25
DICKINSON      CLEAR     -9 -14  78 NW3       30.40R
GARRISON         N/A    -13 -19  75 NW8       30.49R WCI -30
HETTINGER ARPT CLOUDY    -3  -9  75 NW12      30.40R WCI -21
$$

NDZ004>008-012>016-024-026-027-054-011500-
NORTHEAST NORTH DAKOTA

CITY           SKY/WX    TMP DP  RH WIND       PRES   REMARKS
GRAND FORKS    MOCLDY   -12 -20  67 N12       30.58R WCI -32
GRND FRKS AFB  PTCLDY   -13 -21  66 N9        30.58R WCI -31
DEVILS LAKE    PTCLDY   -11 -24  53 N6        30.50S WCI -25
$$

NDZ022-023-025-028>030-036>039-047>053-011500-
SOUTHEAST NORTH DAKOTA

CITY           SKY/WX    TMP DP  RH WIND       PRES   REMARKS
FARGO          CLOUDY    -6 -15  65 N18       30.50R WCI -29
JAMESTOWN      MOCLDY    -9 -17  68 N15       30.47R WCI -31
$$




USA.gov is the U.S. government's official web portal to all federal, state and local government web resources and services.